Tiempo cada hora Allinges

Hoy, 30 Julio, Viernes

Tiempo Temperatura Precipitaciones Viento Presión Humedad
00:00 +18°C° 0.5 mm 1 mps 711 mmHg 92%
01:00 +18°C° 0.2 mm 1 mps 710 mmHg 91%
02:00 +18°C° 0.2 mm 1 mps 710 mmHg 91%
03:00 +16°C° 0.2 mm 1 mps 710 mmHg 90%
04:00 +18°C° 0 mm 1 mps 710 mmHg 89%
05:00 +19°C° 0 mm 1 mps 710 mmHg 88%
06:00 +20°C° 0 mm 1 mps 710 mmHg 87%
07:00 +22°C° 0 mm 1 mps 710 mmHg 79%
08:00 +24°C° 0 mm 1 mps 710 mmHg 71%
09:00 +26°C° 0 mm 2 mps 710 mmHg 62%
10:00 +27°C° 0.2 mm 2 mps 710 mmHg 62%
11:00 +27°C° 0.2 mm 2 mps 710 mmHg 62%
12:00 +28°C° 0.2 mm 3 mps 710 mmHg 61%
13:00 +27°C° 0.6 mm 3 mps 710 mmHg 63%
14:00 +27°C° 0.6 mm 3 mps 709 mmHg 65%
15:00 +27°C° 0.6 mm 3 mps 709 mmHg 67%
16:00 +26°C° 1.2 mm 2 mps 709 mmHg 73%
17:00 +24°C° 1.2 mm 2 mps 709 mmHg 80%
18:00 +23°C° 1.2 mm 2 mps 709 mmHg 87%
19:00 +21°C° 2.6 mm 1 mps 709 mmHg 89%
20:00 +20°C° 2.6 mm 1 mps 710 mmHg 92%
21:00 +19°C° 2.6 mm 1 mps 710 mmHg 95%
22:00 +19°C° 0.5 mm 1 mps 710 mmHg 95%
23:00 +19°C° 0.5 mm 1 mps 710 mmHg 95%

Mañana, 31 Julio, Sábado

Tiempo Temperatura Precipitaciones Viento Presión Humedad
00:00 +19°C° 0.5 mm 1 mps 710 mmHg 95%
01:00 +19°C° 0.1 mm 1 mps 710 mmHg 95%
02:00 +18°C° 0.1 mm 1 mps 710 mmHg 95%
03:00 +18°C° 0.1 mm 1 mps 710 mmHg 95%
04:00 +18°C° 0 mm 1 mps 710 mmHg 94%
05:00 +19°C° 0 mm 1 mps 710 mmHg 94%
06:00 +17°C° 0 mm 0 mps 710 mmHg 93%
07:00 +20°C° 0 mm 1 mps 710 mmHg 87%
08:00 +21°C° 0 mm 1 mps 710 mmHg 82%
09:00 +22°C° 0 mm 1 mps 710 mmHg 76%
10:00 +23°C° 0 mm 1 mps 709 mmHg 71%
11:00 +24°C° 0 mm 1 mps 709 mmHg 67%
12:00 +25°C° 0 mm 1 mps 709 mmHg 62%
13:00 +24°C° 0.1 mm 2 mps 709 mmHg 65%
14:00 +24°C° 0.1 mm 2 mps 708 mmHg 68%
15:00 +22°C° 0.1 mm 3 mps 708 mmHg 71%
16:00 +21°C° 1.2 mm 2 mps 708 mmHg 79%
17:00 +19°C° 1.2 mm 2 mps 708 mmHg 87%
18:00 +19°C° 1.2 mm 1 mps 708 mmHg 94%
19:00 +18°C° 1.1 mm 1 mps 708 mmHg 95%
20:00 +18°C° 1.1 mm 1 mps 708 mmHg 96%
21:00 +18°C° 1.1 mm 1 mps 708 mmHg 97%
22:00 +16°C° 1.2 mm 1 mps 708 mmHg 97%
23:00 +16°C° 1.2 mm 1 mps 708 mmHg 96%

Pasado mañana, 1 Agosto, Domingo

Tiempo Temperatura Precipitaciones Viento Presión Humedad
00:00 +16°C° 1.2 mm 1 mps 708 mmHg 96%
01:00 +16°C° 0.2 mm 1 mps 708 mmHg 96%
02:00 +16°C° 0.2 mm 1 mps 708 mmHg 95%
03:00 +15°C° 0.2 mm 1 mps 708 mmHg 94%
04:00 +15°C° 0.2 mm 1 mps 708 mmHg 94%
05:00 +15°C° 0.2 mm 1 mps 708 mmHg 94%
06:00 +15°C° 0.2 mm 1 mps 709 mmHg 93%
07:00 +15°C° 0.1 mm 1 mps 709 mmHg 92%
08:00 +16°C° 0.1 mm 1 mps 709 mmHg 91%
09:00 +16°C° 0.1 mm 1 mps 709 mmHg 89%
10:00 +16°C° 0.1 mm 1 mps 709 mmHg 87%
11:00 +18°C° 0.1 mm 1 mps 709 mmHg 84%
12:00 +16°C° 0.1 mm 0 mps 709 mmHg 82%
13:00 +18°C° 0.5 mm 1 mps 710 mmHg 84%
14:00 +18°C° 0.5 mm 1 mps 710 mmHg 86%
15:00 +18°C° 0.5 mm 1 mps 710 mmHg 87%
16:00 +18°C° 1 mm 1 mps 710 mmHg 89%
17:00 +18°C° 1 mm 1 mps 710 mmHg 90%
18:00 +18°C° 1 mm 1 mps 710 mmHg 91%
19:00 +15°C° 0.5 mm 1 mps 710 mmHg 92%
20:00 +14°C° 0.5 mm 1 mps 711 mmHg 92%
21:00 +13°C° 0.5 mm 1 mps 711 mmHg 93%
22:00 +13°C° 0.1 mm 1 mps 711 mmHg 93%
23:00 +13°C° 0.1 mm 1 mps 711 mmHg 93%

2 Agosto, Lunes

Tiempo Temperatura Precipitaciones Viento Presión Humedad
00:00 +13°C° 0.1 mm 1 mps 711 mmHg 93%
01:00 +12°C° 0 mm 1 mps 711 mmHg 93%
02:00 +12°C° 0 mm 1 mps 711 mmHg 93%
03:00 +12°C° 0 mm 1 mps 711 mmHg 93%
04:00 +13°C° 0.1 mm 1 mps 711 mmHg 92%
05:00 +14°C° 0.1 mm 1 mps 711 mmHg 91%
06:00 +14°C° 0.1 mm 1 mps 712 mmHg 90%
07:00 +16°C° 0.1 mm 1 mps 712 mmHg 81%
08:00 +19°C° 0.1 mm 1 mps 712 mmHg 72%
09:00 +20°C° 0.1 mm 1 mps 712 mmHg 63%
10:00 +21°C° 0.1 mm 1 mps 712 mmHg 60%
11:00 +21°C° 0.1 mm 1 mps 712 mmHg 57%
12:00 +22°C° 0.1 mm 1 mps 712 mmHg 53%
13:00 +22°C° 0 mm 1 mps 712 mmHg 53%
14:00 +22°C° 0 mm 1 mps 712 mmHg 54%
15:00 +22°C° 0 mm 1 mps 712 mmHg 54%
16:00 +21°C° 0 mm 1 mps 712 mmHg 60%
17:00 +21°C° 0 mm 1 mps 712 mmHg 67%
18:00 +18°C° 0 mm 0 mps 712 mmHg 73%
19:00 +18°C° 0 mm 1 mps 712 mmHg 76%
20:00 +16°C° 0 mm 1 mps 712 mmHg 79%
21:00 +14°C° 0 mm 1 mps 712 mmHg 82%
22:00 +14°C° 0 mm 1 mps 712 mmHg 83%
23:00 +14°C° 0 mm 1 mps 712 mmHg 83%

3 Agosto, Martes

Tiempo Temperatura Precipitaciones Viento Presión Humedad
00:00 +13°C° 0 mm 1 mps 712 mmHg 83%
01:00 +13°C° 0 mm 1 mps 712 mmHg 83%
02:00 +13°C° 0 mm 1 mps 712 mmHg 83%
03:00 +13°C° 0 mm 1 mps 712 mmHg 83%
04:00 +14°C° 0 mm 1 mps 712 mmHg 80%
05:00 +15°C° 0 mm 1 mps 712 mmHg 77%
06:00 +15°C° 0 mm 0 mps 712 mmHg 74%
07:00 +18°C° 0.2 mm 1 mps 712 mmHg 75%
08:00 +17°C° 0.2 mm 2 mps 712 mmHg 76%
09:00 +18°C° 0.2 mm 3 mps 712 mmHg 77%
10:00 +17°C° 1.8 mm 3 mps 712 mmHg 82%
11:00 +16°C° 1.8 mm 3 mps 712 mmHg 88%
12:00 +14°C° 1.8 mm 4 mps 713 mmHg 94%
13:00 +15°C° 0.2 mm 4 mps 713 mmHg 84%
14:00 +18°C° 0.2 mm 4 mps 713 mmHg 75%
15:00 +19°C° 0.2 mm 4 mps 712 mmHg 65%
16:00 +18°C° 0.3 mm 3 mps 713 mmHg 71%
17:00 +18°C° 0.3 mm 2 mps 713 mmHg 77%
18:00 +17°C° 0.3 mm 2 mps 713 mmHg 83%
19:00 +15°C° 0 mm 1 mps 713 mmHg 85%
20:00 +14°C° 0 mm 1 mps 713 mmHg 88%
21:00 +13°C° 0 mm 1 mps 713 mmHg 90%
22:00 +13°C° 0 mm 1 mps 713 mmHg 89%
23:00 +12°C° 0 mm 1 mps 713 mmHg 89%

4 Agosto, Miércoles

Tiempo Temperatura Precipitaciones Viento Presión Humedad
00:00 +12°C° 0 mm 1 mps 713 mmHg 89%
01:00 +13°C° 0 mm 1 mps 713 mmHg 88%
02:00 +13°C° 0 mm 1 mps 712 mmHg 87%
03:00 +13°C° 0 mm 1 mps 712 mmHg 86%
04:00 +12°C° 0 mm 0 mps 712 mmHg 86%
05:00 +13°C° 0 mm 0 mps 712 mmHg 86%
06:00 +13°C° 0 mm 0 mps 713 mmHg 86%
07:00 +15°C° 0 mm 0 mps 713 mmHg 81%
08:00 +16°C° 0 mm 0 mps 713 mmHg 76%
09:00 +19°C° 0 mm 1 mps 713 mmHg 70%
10:00 +20°C° 0.1 mm 1 mps 713 mmHg 65%
11:00 +21°C° 0.1 mm 1 mps 713 mmHg 61%
12:00 +22°C° 0.1 mm 1 mps 713 mmHg 56%
13:00 +22°C° 0 mm 1 mps 713 mmHg 57%
14:00 +22°C° 0 mm 1 mps 712 mmHg 58%
15:00 +22°C° 0 mm 1 mps 712 mmHg 59%
16:00 +21°C° 0 mm 1 mps 712 mmHg 65%
17:00 +20°C° 0 mm 1 mps 712 mmHg 71%
18:00 +20°C° 0 mm 1 mps 712 mmHg 76%
19:00 +18°C° 0 mm 1 mps 712 mmHg 80%
20:00 +16°C° 0 mm 1 mps 712 mmHg 84%
21:00 +14°C° 0 mm 1 mps 712 mmHg 88%
22:00 +14°C° 0 mm 1 mps 711 mmHg 88%
23:00 +14°C° 0 mm 1 mps 711 mmHg 88%
Mostrar más

Necesitamos Su Consentimiento

Meteoprog y nuestros Proveedores de Servicios pueden almacenar y acceder a sus datos personales como cookies, identificadores de dispositivo u otras tecnologías similares de su dispositivo y procesar dichos datos para personalizar contenido y anuncios, además de ofrecer funciones de redes sociales y analizar el tráfico.

  • Almacenar y/o acceder a información en su dispositivo

    Se puede almacenar o acceder a cookies, identificadores de dispositivo u otra información de su dispositivo para los fines anteriormente indicados.

  • Anuncios y contenido personalizados, medición de anuncios y contenido, percepciones del público, y desarrollo de productos

    Los anuncios y el contenido pueden personalizarse en base a su perfil. Se pueden añadir más datos para personalizar mejor los anuncios y contenidos. Se puede medir el rendimiento de los anuncios y contenidos. Se puede obtener la percepción sobre el público que ha visto los anuncios y contenidos. Dichos datos pueden usarse para desarrollar o mejorar la experiencia del usuario, sistemas y software.

Al hacer clic en ‘Estoy De Acuerdo’ usted permitirá el uso de las cookies, identificadores de dispositivo, balizas web u otras tecnologías similares indicadas. Su configuración puede cambiarse desde el navegador de su dispositivo.

Para ciertos fines, los intereses legítimos pueden ser considerados por encima del consentimiento. Puede leer más sobre ello en nuestra Política de Privacidad y Cookies.